Regional Weather Roundup
Issued by NWS

Home | Current Version | Previous Version | Graphics & Text | Print | Product List | Glossary Off
Versions: 1 2 3 4 5 6 7 8 9 10 11 12 13 14 15 16 17 18 19 20 21 22 23 24 25 26 27 28 29 30 31 32 33 34 35 36 37 38 39 40 41 42 43 44 45 46 47 48 49 50

000
ASUS43 KTOP 021559
RWRKS

WEATHER ROUNDUP FOR KANSAS
NATIONAL WEATHER SERVICE GOODLAND KS
1100 AM CDT SUN AUG 02 2015

NOTE:  "FAIR" INDICATES FEW OR NO CLOUDS BELOW 12,000 FEET WITH NO
SIGNIFICANT WEATHER AND/OR OBSTRUCTIONS TO VISIBILITY.

KSZ001>006-013>018-027>032-041>047-021700-
NORTHWEST KANSAS

CITY           SKY/WX    TMP DP  RH WIND       PRES   REMARKS
GOODLAND       SUNNY     86  61  42 SE9       30.01S
HAYS           SUNNY     86  66  51 S7        29.95S
HILL CITY      SUNNY     87  72  60 SW6       29.94S
RUSSELL        SUNNY     86  70  58 SW8       29.93F
$$

KSZ061>065-074>080-084>089-021700-
SOUTHWEST KANSAS

CITY           SKY/WX    TMP DP  RH WIND       PRES   REMARKS
DODGE CITY     SUNNY     81  65  58 S8        29.99S
ELKHART          N/A     81  66  60 W7          N/A
GARDEN CITY    SUNNY     82  65  56 CALM      29.98S
GREAT BEND     SUNNY     84  70  61 S7        29.94S
LIBERAL        MOSUNNY   81  64  57 S8        29.99F
$$

KSZ066>073-081>083-090>101-021700-
SOUTHEAST KANSAS

CITY           SKY/WX    TMP DP  RH WIND       PRES   REMARKS
CHANUTE        SUNNY     87  67  51 SW10      29.97F
COFFEYVILLE    SUNNY     88  68  51 S10       29.97S
HUTCHINSON     SUNNY     85  69  58 S14       29.95F
MEDICINE LODGE   N/A     82  70  66 S10       29.96S
NEWTON         SUNNY     82  66  57 S16       29.98S
PARSONS        SUNNY     87  69  54 SW10      29.98F
WICHITA INTL   MOSUNNY   83  68  60 S14       29.95F
WICHITA JABRA  SUNNY     84  68  58 SW13      29.96F
WINFIELD       MOSUNNY   84  70  62 S8        29.98F
$$

KSZ007>012-019>026-033>040-048>060-102>105-021700-
NORTHEAST KANSAS

CITY           SKY/WX    TMP DP  RH WIND       PRES   REMARKS
CONCORDIA      SUNNY     86  71  60 SW10      29.91F
EMPORIA        SUNNY     87  64  46 SW16G23   29.95F
LAWRENCE       SUNNY     86  68  54 SW12      29.92F
MANHATTAN      SUNNY     87  72  60 SW16G22   29.90F
OLATHE IND     SUNNY     86  68  54 SW18      29.94F
OLATHE EXE     SUNNY     84  68  58 SW12      29.93F
SALINA         SUNNY     89  69  51 S12       29.92F
TOPEKA BILLARD SUNNY     86  68  54 SW15      29.91F
TOPEKA FORBES  SUNNY     87  67  51 SW15G22   29.92F
$$



USA.gov is the U.S. government's official web portal to all federal, state and local government web resources and services.